Ponta Pelada Airport
SBMN : now visible

Airfield :











YOU CAN JOIN US ON...

 
LOGIN :

Register | Disclaimer

   EN    FR    IT 

 









Legend :    VFR   Marginal VFR   IFR   Intensive IFR   Very Intensive IFR
Visi :
Ceiling :
>= 8 km
>= 3000ft
5 to 8 km
1000 to 3000 ft
1500m to 5 km
500 to 1000 ft
800 to 1500m
200 to 500 ft
< 800m
< 200 ft
Symbols :   Thunderstorms  Fog  Heavy snow  Heavy precipitations  Wind > 20 kt






- Airport Elevation : 267 ft
- IATA code : PLL


SBMN - Ponta Pelada

CURRENT METAR :
  • 291400Z 26007KT 9999 SCT018 SCT080 29/25 Q1015

EXPIRED METARs :
  • 291300Z 26007KT 9999 SCT009 BKN070 28/25 Q1015
  • 291200Z 28006KT 9999 SCT009 SCT080 28/25 Q1014

TAF TAF SBMN
Valid from the 29 at 12:00 until the 30 at 00:00 UTC


290900Z 2912/2924 03005KT 9999 BKN010 TN26/2912Z TX30/2917Z
BECMG 2915/2917 14008KT SCT020 FEW025TCU
PROB30 2919/2921 TS SCT020 FEW025CB
BECMG 2921/2923 07005KT FEW020 RMK PEH
SBAZ FIR / South America



MET'MAP, your aeronautical weather chart ! - Copyright ORBIFLY December 2007 - Disclaimer

ORBIFLY MET'MAP TEAM :

Programming & Development : Alexandra Zaïnal
Concept & original design : Baudouin d'Aumeries
Assistance for programming : Marc-Olivier Méhu
Technical & hardware support : Manuel Goepfert

Contact : metmap@orbifly.com




SOURCES & CREDITS :

   NOAA       Earth
Advisory